星链-35304(STARLINK-35304)

导读

STARLINK-35304是美国于2025年10月29日发射的星链卫星,隶属于SpaceX公司的星链互联网星座项目。星链项目旨在通过大规模低轨卫星群,为全球提供高速宽带互联网服务,该卫星入轨后将和其他星链卫星协同,进一步扩展星座服务覆盖范围与网络容量。

基本信息
目录编号:
66249
目录名称:
STARLINK-35304
国际标识:
2025-245R
轨道中心:
EARTH
卫星名称:
星链-35304
卫星全名:
星链-35304(STARLINK-35304)
卫星状态:
在轨 (已飞行311 天)
发射日期:
2025-10-29 UTC
国别 :
美国 (US)
星等 :
--
轨道信息
数据来源 国际轨道数据
星历时间: 2026-09-05T12:51:21+0800
8小时前
查看轨道信息
半长轴: 6848.827km
偏心率: 0.0000935
轨道倾角: 53.156°
近地点辐角 75.573°
升交点赤经 169.159°
平近点角 284.537°
近地点: 470.049km
远地点: 471.331km
周期: 94.012分钟
每日圈数: 15.317169
详细信息
固有亮度:
5
最大亮度:
2.5
卫星平台:
Starlink V1.0
覆盖范围:
全球
运营商:
太空探索技术公司
运营商所在国:
美国
制造商(研发单位):
太空探索技术公司
制造商所在国:
美国
使用方式:
暂无
卫星简介
Starlink 计划是 SpaceX 推出的全球卫星互联网项目,通过发射低轨道卫星,为全球尤其是偏远地区提供高速、低延迟的互联网服务。自 2019 年起,Starlink 已部署数千颗卫星,旨在缩小全球数字鸿沟,推动互联网普及。该项目还为军事、航空等行业提供通信支持,带来广泛经济效益。
2D轨道图
3D轨道图
轨道高度分析图
轨道倾角分析图
轨道综合分析图
查看轨道综合分析图
交会数据列表
事件ID 空间交会对象 最接近时刻(TCA) 交会距离 交会风险概率(CRP) 交会风险指数(CRI) 操作
CDM_260907-093905-855506-624921
HONGHU 2 (58555)
2026-09-07T
09:39:27+0000
1.482 km
极远距离
5.548474E-6 低风险 0.5
CDM_260907-174105-322806-624921
2026-09-07T
17:41:58+0000
1.747 km
极远距离
4.058646E-6 低风险 0.47
CDM_260906-110806-624906-757821
2026-09-06T
11:08:54+0000
2.314 km
极远距离
1.987579E-6 低风险 0.41
CDM_260907-213806-624906-756121
2026-09-07T
21:38:25+0000
2.489 km
极远距离
1.742991E-6 低风险 0.4
CDM_260906-220806-624906-759421
2026-09-06T
22:08:51+0000
2.523 km
极远距离
1.699456E-6 低风险 0.4
CDM_260906-200906-624906-771621
2026-09-06T
20:09:06+0000
2.819 km
极远距离
1.43955E-6 低风险 0.38
CDM_260905-074406-624906-866222
2026-09-05T
07:44:11+0000
2.910 km
极远距离
9.89176E-7 极低风险 0.35